Santiago De Compostela, Spain

1:27 AM CEST on August 25, 2016 (GMT +0200)
Santiago

Weather History for LEST - October, 2012

Change the Weather History Date:

Tuesday, October 2, 2012

  Actual Average Record
Temperature  
Mean Temperature 58 °F -  
Max Temperature 64 °F 61 °F 86 °F (2011)
Min Temperature 53 °F 48 °F 44 °F (2015)
Degree Days  
Heating Degree Days 6    
Growing Degree Days 8 (Base 50)    
Moisture  
Dew Point 58 °F    
Average Humidity 99    
Maximum Humidity 100    
Minimum Humidity 88    
Precipitation  
Precipitation 0.00 in - - ()
Sea Level Pressure  
Sea Level Pressure 30.20 in    
Wind  
Wind Speed 3 mph ()    
Max Wind Speed 7 mph    
Max Gust Speed -    
Visibility 3.9 miles    
Events Fog , Rain    
Averages and records for this station are not official NWS values.
T = Trace of Precipitation, MM = Missing Value Source: Averaged Metar Reports

Daily Weather History Graph

Daily Weather History Graph

Search for Another Location

Airport or City:

Trip Planner

Search our weather history database for the weather conditions in past years. The results will help you decide how hot, cold, wet, or windy it might be!

Date:

Astronomy

Oct. 02, 2012 Rise Set
Actual Time 8:32 AM CEST 8:12 PM CEST
Civil Twilight 8:04 AM CEST 8:40 PM CEST
Nautical Twilight 7:31 AM CEST 9:13 PM CEST
Astronomical Twilight 6:58 AM CEST 9:46 PM CEST
Moon 9:12 PM CEST (10/2) 10:51 AM CEST (10/2)
Length of Visible Light 12h 36m
Length of Day
11h 40m
Waning Gibbous, 95% of the Moon is Illuminated
Oct 2
Waning Gibbous
Oct 8
Last Quarter
Oct 15
New
Oct 22
First Quarter
Oct 29
Full

Hourly Weather History & Observations

Time (CEST) Temp. Dew Point Humidity Pressure Visibility Wind Dir Wind Speed Gust Speed Precip Events Conditions
12:00 AM 55.4 °F 55.4 °F 100% 30.24 in - Variable 1.2 mph - N/A   Clear
12:30 AM 55.4 °F 55.4 °F 100% 30.24 in 5.6 mi Variable 2.3 mph - N/A Fog Patches of Fog
1:00 AM 55.4 °F 55.4 °F 100% 30.24 in 5.0 mi Variable 1.2 mph - N/A Fog Scattered Clouds
1:30 AM 55.4 °F 55.4 °F 100% 30.24 in 5.0 mi Calm Calm - N/A Fog Mostly Cloudy
2:00 AM 57.2 °F 57.2 °F 100% 30.24 in 4.3 mi Calm Calm - N/A Fog Mostly Cloudy
2:30 AM 57.2 °F 57.2 °F 100% 30.21 in 2.2 mi Variable 2.3 mph - N/A   Light Drizzle
3:00 AM 57.2 °F 57.2 °F 100% 30.21 in 1.6 mi Variable 2.3 mph - N/A   Mostly Cloudy
3:30 AM 55.4 °F 55.4 °F 100% 30.21 in 0.7 mi SE 3.5 mph - N/A   Mostly Cloudy
4:00 AM 55.4 °F 55.4 °F 100% 30.21 in 0.6 mi Variable 2.3 mph - N/A Fog Fog
4:30 AM 55.4 °F 55.4 °F 100% 30.21 in 1.6 mi Variable 2.3 mph - N/A   Mostly Cloudy
5:00 AM 55.4 °F 55.4 °F 100% 30.21 in 3.1 mi Variable 2.3 mph - N/A   Mostly Cloudy
5:30 AM 53.6 °F 53.6 °F 100% 30.18 in 4.3 mi Variable 1.2 mph - N/A   Mostly Cloudy
6:00 AM 55.4 °F 55.4 °F 100% 30.18 in 4.3 mi Variable 2.3 mph - N/A   Mostly Cloudy
6:30 AM 55.4 °F 55.4 °F 100% 30.18 in 5.6 mi Variable 2.3 mph - N/A   Mostly Cloudy
7:30 AM 55.4 °F 55.4 °F 100% 30.18 in 4.3 mi Variable 2.3 mph - N/A   Light Drizzle
8:00 AM 55.4 °F 55.4 °F 100% 30.18 in 4.3 mi Variable 2.3 mph - N/A   Overcast
8:30 AM 55.4 °F 55.4 °F 100% 30.18 in 4.3 mi Variable 2.3 mph - N/A   Overcast
9:00 AM 55.4 °F 55.4 °F 100% 30.18 in 3.1 mi Variable 2.3 mph - N/A   Light Drizzle
9:30 AM 55.4 °F 55.4 °F 100% 30.18 in 3.1 mi SE 3.5 mph - N/A   Overcast
10:00 AM 57.2 °F 57.2 °F 100% 30.21 in 1.9 mi SSE 3.5 mph - N/A   Light Drizzle
10:10 AM 57.2 °F 57.2 °F 100% 30.21 in 0.7 mi SE 3.5 mph - N/A   Drizzle
10:30 AM 59.0 °F 59.0 °F 100% 30.21 in 1.9 mi SSE 3.5 mph - N/A   Light Drizzle
11:00 AM 59.0 °F 59.0 °F 100% 30.21 in 1.9 mi SSE 3.5 mph - N/A   Mostly Cloudy
11:30 AM 59.0 °F 59.0 °F 100% 30.21 in 0.7 mi SW 3.5 mph - N/A   Drizzle
12:00 PM 60.8 °F 60.8 °F 100% 30.21 in 1.9 mi SW 5.8 mph - N/A   Mostly Cloudy
12:30 PM 60.8 °F 60.8 °F 100% 30.21 in 1.9 mi WSW 4.6 mph - N/A   Light Drizzle
1:00 PM 60.8 °F 60.8 °F 100% 30.21 in 1.9 mi SSW 5.8 mph - N/A   Light Drizzle
1:30 PM 60.8 °F 60.8 °F 100% 30.21 in 1.9 mi SW 6.9 mph - N/A   Light Drizzle
2:00 PM 60.8 °F 60.8 °F 100% 30.21 in 2.5 mi SW 5.8 mph - N/A   Mostly Cloudy
2:30 PM 60.8 °F 60.8 °F 100% 30.21 in 5.0 mi WSW 6.9 mph - N/A   Mostly Cloudy
3:00 PM 62.6 °F 62.6 °F 100% 30.21 in 5.0 mi West 6.9 mph - N/A   Mostly Cloudy
3:30 PM 62.6 °F 60.8 °F 94% 30.21 in 5.0 mi SW 6.9 mph - N/A   Light Drizzle
4:00 PM 62.6 °F 62.6 °F 100% 30.18 in 5.0 mi SW 5.8 mph - N/A   Light Drizzle
5:00 PM 64.4 °F 62.6 °F 94% 30.18 in 5.0 mi West 6.9 mph - N/A Rain Light Rain
5:30 PM 64.4 °F 60.8 °F 88% 30.18 in 6.2 mi WSW 6.9 mph - N/A   Mostly Cloudy
6:00 PM 64.4 °F 60.8 °F 88% 30.18 in 6.2 mi WSW 6.9 mph - N/A   Mostly Cloudy
7:00 PM 62.6 °F 62.6 °F 100% 30.18 in 6.2 mi West 3.5 mph - N/A   Mostly Cloudy
7:30 PM 62.6 °F 60.8 °F 94% 30.18 in 6.2 mi WSW 3.5 mph - N/A   Mostly Cloudy
8:00 PM 62.6 °F 60.8 °F 94% 30.18 in 6.2 mi WSW 3.5 mph - N/A   Mostly Cloudy
8:30 PM 60.8 °F 60.8 °F 100% 30.18 in 6.2 mi West 3.5 mph - N/A   Mostly Cloudy
9:00 PM 60.8 °F 60.8 °F 100% 30.18 in 6.2 mi Variable 2.3 mph - N/A   Mostly Cloudy
9:30 PM 60.8 °F 60.8 °F 100% 30.18 in 6.2 mi Variable 1.2 mph - N/A   Mostly Cloudy
10:00 PM 60.8 °F 60.8 °F 100% 30.21 in 6.2 mi Variable 2.3 mph - N/A   Mostly Cloudy
10:30 PM 60.8 °F 60.8 °F 100% 30.21 in 6.2 mi Variable 2.3 mph - N/A   Mostly Cloudy
11:00 PM 60.8 °F 60.8 °F 100% 30.21 in 5.0 mi Variable 1.2 mph - N/A   Mostly Cloudy
11:30 PM 59.0 °F 59.0 °F 100% 30.21 in 2.5 mi Variable 2.3 mph - N/A Rain Mostly Cloudy